Simultaneous Nadir Overpasses (SNOs) Predictions

Prediction of SNOs between FY3D and TERRA Satellite Orbit:

Table of predicted SNOs for the next 14.0 days since TLE Epoch: 2/5/2022
Index Date (FY3D) Time (FY3D) Lat,Lon (FY3D) SZA (FY3D ) Date (TERRA) Time (TERRA) Lat,Lon (TERRA) SZA (TERRA ) Distance(km) Time Diff (sec)
1 02/07/2022 05:16:16 70.90, 100.77 86.15 02/07/2022 05:16:59 70.89, 100.76 86.13 1.73 43
2 02/07/2022 06:06:59 -70.81, -91.76 93.96 02/07/2022 06:06:28 -70.82, -91.70 93.95 2.68 31
3 02/09/2022 20:43:24 -70.89, 49.03 94.71 02/09/2022 20:43:58 -70.90, 49.02 94.70 1.88 34
4 02/09/2022 21:34:09 70.80,-143.51 85.19 02/09/2022 21:33:25 70.80,-143.49 85.19 0.66 44
5 02/12/2022 12:10:33 70.88, -2.72 84.41 02/12/2022 12:10:54 70.86, -2.80 84.39 3.26 21
6 02/12/2022 13:01:16 -70.79, 164.74 95.70 02/12/2022 13:00:23 -70.80, 164.75 95.68 1.73 53
7 02/15/2022 02:47:07 71.43, 137.25 84.10 02/15/2022 02:48:17 71.29, 138.48 83.93 46.39 70
8 02/15/2022 03:37:42 -70.92, -54.56 96.44 02/15/2022 03:37:52 -70.91, -54.49 96.46 3.38 10
9 02/15/2022 04:28:26 70.78, 112.99 83.40 02/15/2022 04:27:19 70.80, 112.99 83.42 1.94 67
10 02/17/2022 18:14:08 -71.06, 86.12 97.20 02/17/2022 18:15:20 -71.05, 86.34 97.23 8.01 72
11 02/17/2022 19:04:51 70.86,-106.23 82.58 02/17/2022 19:04:48 70.88,-106.27 82.60 2.57 3
12 02/17/2022 19:55:32 -70.68, 61.39 97.63 02/17/2022 19:54:19 -70.72, 61.11 97.57 11.52 73



Historial Predications of SNOs between FY3D and TERRA
